User: anonymous   Login
Location: Mentone
(34.5413°N, 85.5351°W)
Time: 13:44:42
(UTC-06:00)
Language:

ADEOS Rocket - Orbit

View from above orbital plane
View from above orbital plane
View from above satellite
View from above satellite

Ground track
Ground track

The orbit data is extracted from the following two-line orbital elements,

1 24279U 96046C   17054.53530163 -.00000013 +00000-0 +29978-4 0  9996
2 24279 098.7393 012.6115 0299395 218.2798 274.0710 13.47075306008662
Epoch (UTC): 23 February 2017 12:50:50
Eccentricity: 0.0299395
inclination: 98.7393°
perigee height: 859 km
apogee height: 1306 km
right ascension of ascending node: 12.6115°
argument of perigee: 218.2798°
revolutions per day: 13.47075306
mean anomaly at epoch: 274.0710°
orbit number at epoch: 866

The dashed part of the orbit path shows where the satellite is in the earth's shadow,  

DLR